Tracking 29933 objects as of 3-Dec-2024
HD Live streaming from Space Station
objects crossing your sky now

ONEWEB-0573

Track ONEWEB-0573 now!
10-day predictions
ONEWEB-0573 is classified as:


NORAD ID: 55152
Int'l Code: 2023-004N
Perigee: 1,195.9 km
Apogee: 1,197.9 km
Inclination: 87.9 °
Period: 109.2 minutes
Semi major axis: 7567 km
RCS: Unknown
Launch date: January 10, 2023
Source: United Kingdom (UK)
Launch site: AIR FORCE WESTERN TEST RANGE (AFWTR)
Your satellite tracking list
Your tracking list is empty




NASA's NSSDC Master Catalog

Two Line Element Set (TLE):
1 55152U 23004N   24337.55169496  .00000091  00000-0  19929-3 0  9994
2 55152  87.9119  87.2844 0001328 140.2424 219.8806 13.18688131 95670
Source of the keplerian elements: AFSPC